This demonstration page uses our WeatherBlox Daily Observations layout. Learn more.

Left ArrowRight Arrow

39.08367, -84.50855

Hourly Observations for May 29, 2020

Temp ( °F °C ) Dew Point ( °F °C ) Humidity (%) Winds ( mph kmh ) Pressure ( in mb ) Visibility ( mi km ) Precip ( " mm )
12:53 am 00:53 Clear 68 20 64 17.8 87 87 S 7 11 29.93 1013 10 16.0934 0 0
1:53 am 01:53 Cloudy 68 20 65 18.3 90 90 S 6 9 29.92 1013 10 16.0934 0 0
2:53 am 02:53 Mostly Clear 70 21.1 65 18.3 84 84 SW 9 15 29.91 1013 10 16.0934 0 0
3:53 am 03:53 Clear 68 20 63 17.2 84 84 SW 3 6 29.9 1013 10 16.0934 0 0
4:53 am 04:53 Clear 64 17.8 62 16.7 93 93 SSW 5 7 29.91 1013 10 16.0934 0 0
5:53 am 05:53 Partly Cloudy 67 19.4 62 16.7 84 84 Calm 29.92 1013 10 16.0934 0 0
6:53 am 06:53 Partly Cloudy 66 18.9 64 17.8 93 93 SSW 5 7 29.95 1014 10 16.0934 0 0
7:53 am 07:53 Mostly Cloudy 67 19.4 64 17.8 91 91 S 7 11 29.96 1015 10 16.0934 0 0
8:53 am 08:53 Mostly Sunny 69 20.6 64 17.8 84 84 SSW 8 13 29.96 1015 10 16.0934 0.001 0.001
9:53 am 09:53 Mostly Cloudy 73 22.8 64 17.8 74 74 SW 10 17 29.96 1014 10 16.0934 0.001 0.001
10:53 am 10:53 Partly Cloudy 75 23.9 65 18.3 71 71 SSW 14 22 29.95 1014 10 16.0934 0 0
11:53 am 11:53 Cloudy with Heavy Thunderstorms 71 21.7 65 18.3 81 81 W 13 20 29.95 1014 2.5 4.02335 0.06 1.524
12:05 pm 12:05 Cloudy with Heavy Thunderstorms 69 20.6 62 16.7 78 78 SSW 20 31 29.95 1014 2.5 4.02335 0.35 8.89
12:08 pm 12:08 Cloudy with Heavy Thunderstorms 69 20.6 62 16.7 78 78 SSW 16 26 29.95 1014 3 4.82802 0.36 9.144
12:28 pm 12:28 Mostly Cloudy with Light Rain 71 21.7 65 18.3 81 81 SW 10 17 29.93 1013 10 16.0934 0.36 9.144
12:53 pm 12:53 Mostly Cloudy 75 23.9 68 20 79 79 SSW 8 13 29.91 1013 10 16.0934 0.36 9.144
1:53 pm 13:53 Mostly Sunny 77 25 62 16.7 60 60 SW 12 19 29.9 1013 10 16.0934 0 0
2:00 pm 14:00 Partly Cloudy with Nearby Thunderstorms 76 24.4 62 16.7 62 62 SW 12 19 29.89 1012 10 16.0934 0 0
2:17 pm 14:17 Mostly Cloudy with Light Rain 76 24.4 62 16.7 62 62 SW 13 20 29.9 1013 10 16.0934 0.001 0.001
2:53 pm 14:53 Partly Cloudy 78 25.6 64 17.8 62 62 WSW 16 26 29.91 1013 10 16.0934 0.001 0.001
3:53 pm 15:53 Partly Cloudy with Light Rain 75 23.9 62 16.7 64 64 W 14 22 29.93 1014 10 16.0934 0.001 0.001
4:53 pm 16:53 Partly Cloudy 73 22.8 64 17.8 74 74 W 14 22 29.95 1014 10 16.0934 0.001 0.001
5:53 pm 17:53 Partly Cloudy 73 22.8 61 16.1 66 66 N 10 17 29.96 1015 10 16.0934 0 0
6:53 pm 18:53 Cloudy 73 22.8 60 15.6 64 64 NNW 10 17 29.96 1015 10 16.0934 0 0
7:53 pm 19:53 Partly Cloudy 72 22.2 56 13.3 57 57 NNW 9 15 29.99 1016 10 16.0934 0 0
8:53 pm 20:53 Sunny 69 20.6 54 12.2 59 59 Calm 30.01 1016 10 16.0934 0 0
9:53 pm 21:53 Clear 62 16.7 58 14.4 86 86 Calm 30.02 1017 10 16.0934 0 0
10:53 pm 22:53 Clear 62 16.7 58 14.4 86 86 Calm 30.04 1017 10 16.0934 0 0
11:53 pm 23:53 Clear 59 15 58 14.4 96 96 Calm 30.04 1017 10 16.0934 0 0

Powered by AerisWeather